sat.trackr.live / text

‹ back to catalog

STARLINK-30610

NORAD 58082 · 2023-160H

PAYLOAD ACTIVE UNKNOWN

§ Identity

Operator
Country
US
Launch date
2023-10-18
Launch site
AFETR
Launch vehicle
Mass (kg)
RCS (m²)

Purposes: comms

External: N2YO · Heavens-Above · Gunter

§ Orbital elements

Epoch: 2026-09-20T03:52:56.173728Z

Period
94.27 min
Inclination
43.0057°
Eccentricity
0.0001936
Mean motion
15.27572648 rev/d
Perigee alt
481.7 km
Apogee alt
484.4 km
Semi-major
6,861.2 km
B*
-9.4975e-6
RAAN
59.9676°
Arg perigee
260.1163°
Mean anomaly
99.9471°
Rev number
16,268

§ Raw data

STARLINK-306101 58082U 23160H   26263.16176127 -.00000524  00000+0 -94975-5 0  99962 58082  43.0057  59.9676 0001936 260.1163  99.9471 15.27572648162683

JSON: /api/v1/satellites/58082 · /tle

For live sub-satellite position, see the globe view (requires WebGL).

§ Visibility from observer

Set your observer location to see the next 7 days of passes ≥ 10°. The values pass through the URL so the page stays shareable.

No JS? Fill the form by hand. The geolocation button needs JavaScript.